Location: Lane
(33.5226°N, 79.8788°W)
Time: 06:31:06
(UTC+00:00)

SR - Pass Details

Date: 27 September 2022
Orbit: 577 x 874 km, 66.7° (Epoch: 08 December)

Event Time Altitude Azimuth Distance (km) Brightness Sun altitude
Rises 13:32:29 0° 323° (NW) 3,269 ? 27.8°
Reaches altitude 10° 13:35:10 10° 315° (NW) 2,287 ? 28.3°
Maximum altitude 13:39:49 34° 252° (WSW) 1,176 ? 29.2°
Drops below altitude 10° 13:44:06 10° 188° (S) 2,097 ? 30.0°
Sets 13:46:28 0° 179° (S) 2,959 ? 30.5°
